Regional Weather Roundup
Issued by NWS Northern Indiana

Home | Current Version | Previous Version | Text Only | Print | Product List | Glossary Off
Versions: 1 2 3 4 5 6 7 8 9 10 11 12 13 14 15 16 17 18 19 20 21 22 23 24 25 26 27 28 29 30 31 32 33 34 35 36 37 38 39 40 41 42 43 44 45 46 47 48 49 50

000
ASUS43 KIWX 140300
RWRIWX

KIWX WEATHER ROUNDUP
NATIONAL WEATHER SERVICE NORTHERN INDIANA
1000 PM EST SAT FEB 13 2016

NOTE: "FAIR" INDICATES FEW OR NO CLOUDS BELOW 12,000 FEET WITH NO
SIGNIFICANT WEATHER AND/OR OBSTRUCTIONS TO VISIBILITY.

* THESE STATIONS ARE NOT UNDER NWS QUALITY CONTROL. THEY ALSO MAY NOT
  REPORT WEATHER SUCH AS PRECIPITATION OR FOG.

INZ001>027-140400-
NORTHERN INDIANA

CITY           SKY/WX    TMP DP  RH WIND       PRES   REMARKS
GARY*          PTCLDY    14  -2  48 CALM      30.50S
SOUTH BEND     CLOUDY     8   2  76 SW6       30.49S WCI  -2
GOSHEN         CLOUDY     9   3  77 SW5       30.47F WCI   1
ANGOLA*        CLOUDY    10   5  79 W3        30.44F
FORT WAYNE     CLOUDY     8   1  73 W6        30.49F WCI  -2
PERU/GRISSOM   PTCLDY     9  -1  65 E2        30.47S

$$
INZ028>050-140400-
CENTRAL INDIANA

CITY           SKY/WX    TMP DP  RH WIND       PRES   REMARKS
LAFAYETTE      CLOUDY    11   2  67 CALM      30.50F
KOKOMO*        PTCLDY     7  -2  66 CALM      30.49S
MUNCIE*        CLOUDY     9  -2  61 CALM      30.48F
INDIANAPOLIS   CLOUDY    14   0  53 NW3       30.47F

$$
MIZ043>046-050>051-056>058-064>065-071>073-077>080-140400-
SOUTHWEST LOWER MICHIGAN

CITY           SKY/WX    TMP DP  RH WIND       PRES   REMARKS
BATTLE CREEK   CLOUDY    12   4  70 NW3       30.45S
BENTON HARBOR  CLOUDY    16   4  59 CALM      30.48F
COLDWATER*     CLOUDY    12   6  76 NW5       30.45S WCI   4
HILLSDALE*     CLOUDY    11  -1  59 NW9G17    30.42S WCI  -2
HOLLAND        CLOUDY    13   3  64 NE3       30.48S
GRAND RAPIDS   CLOUDY    12   1  61 N6        30.46S WCI   3
KALAMAZOO      LGT SNOW  12   6  77 NW3       30.46S
STURGIS*       CLOUDY     8   4  85 CALM      30.45F
THREE RIVERS*  CLOUDY    12   7  79 W3        30.47S

$$
OHZ001>008-015>018-024>025-140400-
NORTHWEST OHIO

CITY           SKY/WX    TMP DP  RH WIND       PRES   REMARKS
DEFIANCE       CLOUDY    13   3  64 W3        30.49S
FINDLAY        CLOUDY    12   6  77 W10       30.46R WCI  -1
TOLEDO EXPRESS CLOUDY    14   3  61 NW8       30.46S WCI   3
TOLEDO METCALF CLOUDY    15   4  61 NW8       30.48S WCI   4
LIMA           MOCLDY     9   3  77 W6        30.46S WCI  -1

$$
AND FOR LAKE MICHIGAN COASTAL AND OPEN LAKE BUOY OBSERVATIONS

STATION/POSITION TEMP    WIND        PRES    VSBY  WAVE
                 AIR SEA DIR/SP/G                  HT/PER
                 (F)     (DEG/KT/KT) (MB)    (MI)  (FT/S)
CALUMET HARBOR    15                 1031.7F
MICHIGAN CITY     12     150/  4/  5   N/A
BURNS HARBOR      13     170/  4/  6 1032.8F
SAINT JOSEPH      16     320/  6/  9 1032.8F

$$
&&



USA.gov is the U.S. government's official web portal to all federal, state and local government web resources and services.